Year,Month,Day,Hour,Minute,Value (Times are PST for windgust in km/hr)
2016,07,31,00,00,14.50
2016,07,31,00,01,16.10
2016,07,31,00,02,12.90
2016,07,31,00,03,16.10
2016,07,31,00,04,20.90
2016,07,31,00,05,14.50
2016,07,31,00,06,14.50
2016,07,31,00,07,14.50
2016,07,31,00,08,12.90
2016,07,31,00,09,12.90
2016,07,31,00,10,14.50
2016,07,31,00,11,19.30
2016,07,31,00,12,17.70
2016,07,31,00,13,11.30
2016,07,31,00,14,11.30
2016,07,31,00,15,16.10
2016,07,31,00,16,12.90
2016,07,31,00,17,11.30
2016,07,31,00,18,8.10
2016,07,31,00,19,11.30
2016,07,31,00,20,9.60
2016,07,31,00,21,8.10
2016,07,31,00,22,6.40
2016,07,31,00,23,12.90
2016,07,31,00,24,11.30
2016,07,31,00,25,14.50
2016,07,31,00,26,14.50
2016,07,31,00,27,12.90
2016,07,31,00,28,14.50
2016,07,31,00,29,19.30
2016,07,31,00,30,20.90
2016,07,31,00,31,11.30
2016,07,31,00,32,12.90
2016,07,31,00,33,14.50
2016,07,31,00,34,12.90
2016,07,31,00,35,11.30
2016,07,31,00,36,11.30
2016,07,31,00,37,12.90
2016,07,31,00,38,6.40
2016,07,31,00,39,4.80
2016,07,31,00,40,6.40
2016,07,31,00,41,4.80
2016,07,31,00,42,6.40
2016,07,31,00,43,12.90
2016,07,31,00,44,8.10
2016,07,31,00,45,11.30
2016,07,31,00,46,9.60
2016,07,31,00,47,11.30
2016,07,31,00,48,6.40
2016,07,31,00,49,9.60
2016,07,31,00,50,6.40
2016,07,31,00,51,9.60
2016,07,31,00,52,11.30
2016,07,31,00,53,16.10
2016,07,31,00,54,12.90
2016,07,31,00,55,12.90
2016,07,31,00,56,12.90
2016,07,31,00,57,12.90
2016,07,31,00,58,14.50
2016,07,31,00,59,12.90
2016,07,31,01,00,11.30
2016,07,31,01,01,12.90
2016,07,31,01,02,16.10
2016,07,31,01,03,16.10
2016,07,31,01,04,9.60
2016,07,31,01,05,11.30
2016,07,31,01,06,11.30
2016,07,31,01,07,17.70
2016,07,31,01,08,14.50
2016,07,31,01,09,14.50
2016,07,31,01,10,14.50
2016,07,31,01,11,17.70
2016,07,31,01,12,14.50
2016,07,31,01,13,14.50
2016,07,31,01,14,14.50
2016,07,31,01,15,14.50
2016,07,31,01,16,14.50
2016,07,31,01,17,19.30
2016,07,31,01,18,14.50
2016,07,31,01,19,14.50
2016,07,31,01,20,17.70
2016,07,31,01,21,16.10
2016,07,31,01,22,14.50
2016,07,31,01,23,19.30
2016,07,31,01,24,19.30
2016,07,31,01,25,17.70
2016,07,31,01,26,17.70
2016,07,31,01,27,14.50
2016,07,31,01,28,9.60
2016,07,31,01,29,16.10
2016,07,31,01,30,17.70
2016,07,31,01,31,19.30
2016,07,31,01,32,20.90
2016,07,31,01,33,20.90
2016,07,31,01,34,19.30
2016,07,31,01,35,17.70
2016,07,31,01,36,16.10
2016,07,31,01,37,16.10
2016,07,31,01,38,16.10
2016,07,31,01,39,16.10
2016,07,31,01,40,19.30
2016,07,31,01,41,12.90
2016,07,31,01,42,12.90
2016,07,31,01,43,14.50
2016,07,31,01,44,14.50
2016,07,31,01,45,17.70
2016,07,31,01,46,8.10
2016,07,31,01,47,12.90
2016,07,31,01,48,16.10
2016,07,31,01,49,19.30
2016,07,31,01,50,19.30
2016,07,31,01,51,19.30
2016,07,31,01,52,14.50
2016,07,31,01,53,14.50
2016,07,31,01,54,20.90
2016,07,31,01,55,12.90
2016,07,31,01,56,11.30
2016,07,31,01,57,12.90
2016,07,31,01,58,14.50
2016,07,31,01,59,17.70
2016,07,31,02,00,16.10
2016,07,31,02,01,20.90
2016,07,31,02,02,16.10
2016,07,31,02,03,14.50
2016,07,31,02,04,16.10
2016,07,31,02,05,14.50
2016,07,31,02,06,16.10
2016,07,31,02,07,11.30
2016,07,31,02,08,14.50
2016,07,31,02,09,12.90
2016,07,31,02,10,6.40
2016,07,31,02,11,11.30
2016,07,31,02,12,14.50
2016,07,31,02,13,8.10
2016,07,31,02,14,17.70
2016,07,31,02,15,9.60
2016,07,31,02,16,9.60
2016,07,31,02,17,16.10
2016,07,31,02,18,14.50
2016,07,31,02,19,14.50
2016,07,31,02,20,17.70
2016,07,31,02,21,17.70
2016,07,31,02,22,9.60
2016,07,31,02,23,14.50
2016,07,31,02,24,12.90
2016,07,31,02,25,14.50
2016,07,31,02,26,12.90
2016,07,31,02,27,16.10
2016,07,31,02,28,16.10
2016,07,31,02,29,20.90
2016,07,31,02,30,17.70
2016,07,31,02,31,14.50
2016,07,31,02,32,11.30
2016,07,31,02,33,11.30
2016,07,31,02,34,11.30
2016,07,31,02,35,6.40
2016,07,31,02,36,9.60
2016,07,31,02,37,6.40
2016,07,31,02,38,6.40
2016,07,31,02,39,9.60
2016,07,31,02,40,9.60
2016,07,31,02,41,14.50
2016,07,31,02,42,9.60
2016,07,31,02,43,14.50
2016,07,31,02,44,11.30
2016,07,31,02,45,12.90
2016,07,31,02,46,19.30
2016,07,31,02,47,14.50
2016,07,31,02,48,11.30
2016,07,31,02,49,14.50
2016,07,31,02,50,16.10
2016,07,31,02,51,11.30
2016,07,31,02,52,14.50
2016,07,31,02,53,11.30
2016,07,31,02,54,12.90
2016,07,31,02,55,14.50
2016,07,31,02,56,11.30
2016,07,31,02,57,12.90
2016,07,31,02,58,11.30
2016,07,31,02,59,14.50
2016,07,31,03,00,9.60
2016,07,31,03,01,16.10
2016,07,31,03,02,16.10
2016,07,31,03,03,11.30
2016,07,31,03,04,9.60
2016,07,31,03,05,9.60
2016,07,31,03,06,12.90
2016,07,31,03,07,14.50
2016,07,31,03,08,9.60
2016,07,31,03,09,9.60
2016,07,31,03,10,14.50
2016,07,31,03,11,14.50
2016,07,31,03,12,11.30
2016,07,31,03,13,11.30
2016,07,31,03,14,12.90
2016,07,31,03,15,11.30
2016,07,31,03,16,17.70
2016,07,31,03,17,14.50
2016,07,31,03,18,11.30
2016,07,31,03,19,9.60
2016,07,31,03,20,16.10
2016,07,31,03,21,12.90
2016,07,31,03,22,9.60
2016,07,31,03,23,8.10
2016,07,31,03,24,8.10
2016,07,31,03,25,9.60
2016,07,31,03,26,6.40
2016,07,31,03,27,4.80
2016,07,31,03,28,9.60
2016,07,31,03,29,6.40
2016,07,31,03,30,3.20
2016,07,31,03,31,3.20
2016,07,31,03,32,4.80
2016,07,31,03,33,8.10
2016,07,31,03,34,11.30
2016,07,31,03,35,14.50
2016,07,31,03,36,8.10
2016,07,31,03,37,8.10
2016,07,31,03,38,6.40
2016,07,31,03,39,6.40
2016,07,31,03,40,8.10
2016,07,31,03,41,11.30
2016,07,31,03,42,14.50
2016,07,31,03,43,14.50
2016,07,31,03,44,9.60
2016,07,31,03,45,8.10
2016,07,31,03,46,11.30
2016,07,31,03,47,8.10
2016,07,31,03,48,12.90
2016,07,31,03,49,9.60
2016,07,31,03,50,11.30
2016,07,31,03,51,11.30
2016,07,31,03,52,14.50
2016,07,31,03,53,12.90
2016,07,31,03,54,11.30
2016,07,31,03,55,11.30
2016,07,31,03,56,14.50
2016,07,31,03,57,16.10
2016,07,31,03,58,11.30
2016,07,31,03,59,11.30
2016,07,31,04,00,8.10
2016,07,31,04,01,16.10
2016,07,31,04,02,11.30
2016,07,31,04,03,14.50
2016,07,31,04,05,9.60
2016,07,31,04,06,11.30
2016,07,31,04,07,9.60
2016,07,31,04,08,6.40
2016,07,31,04,09,11.30
2016,07,31,04,10,11.30
2016,07,31,04,11,12.90
2016,07,31,04,12,11.30
2016,07,31,04,13,8.10
2016,07,31,04,14,9.60
2016,07,31,04,15,12.90
2016,07,31,04,16,14.50
2016,07,31,04,17,12.90
2016,07,31,04,18,11.30
2016,07,31,04,19,16.10
2016,07,31,04,20,9.60
2016,07,31,04,21,12.90
2016,07,31,04,22,9.60
2016,07,31,04,23,8.10
2016,07,31,04,24,11.30
2016,07,31,04,25,6.40
2016,07,31,04,26,6.40
2016,07,31,04,27,16.10
2016,07,31,04,28,12.90
2016,07,31,04,29,12.90
2016,07,31,04,30,11.30
2016,07,31,04,31,14.50
2016,07,31,04,32,11.30
2016,07,31,04,33,12.90
2016,07,31,04,34,16.10
2016,07,31,04,35,12.90
2016,07,31,04,36,14.50
2016,07,31,04,37,16.10
2016,07,31,04,38,11.30
2016,07,31,04,39,12.90
2016,07,31,04,40,12.90
2016,07,31,04,41,14.50
2016,07,31,04,42,12.90
2016,07,31,04,43,9.60
2016,07,31,04,44,14.50
2016,07,31,04,45,11.30
2016,07,31,04,46,11.30
2016,07,31,04,47,6.40
2016,07,31,04,48,4.80
2016,07,31,04,49,8.10
2016,07,31,04,50,9.60
2016,07,31,04,51,11.30
2016,07,31,04,52,14.50
2016,07,31,04,53,14.50
2016,07,31,04,54,9.60
2016,07,31,04,55,16.10
2016,07,31,04,56,17.70
2016,07,31,04,57,14.50
2016,07,31,04,58,12.90
2016,07,31,04,59,12.90
2016,07,31,05,00,17.70
2016,07,31,05,01,17.70
2016,07,31,05,02,14.50
2016,07,31,05,03,9.60
2016,07,31,05,04,9.60
2016,07,31,05,05,11.30
2016,07,31,05,06,16.10
2016,07,31,05,07,11.30
2016,07,31,05,08,11.30
2016,07,31,05,09,14.50
2016,07,31,05,10,9.60
2016,07,31,05,11,16.10
2016,07,31,05,12,14.50
2016,07,31,05,13,12.90
2016,07,31,05,14,6.40
2016,07,31,05,15,12.90
2016,07,31,05,16,11.30
2016,07,31,05,17,16.10
2016,07,31,05,18,14.50
2016,07,31,05,19,12.90
2016,07,31,05,20,11.30
2016,07,31,05,21,14.50
2016,07,31,05,22,17.70
2016,07,31,05,23,19.30
2016,07,31,05,24,14.50
2016,07,31,05,25,14.50
2016,07,31,05,26,14.50
2016,07,31,05,27,12.90
2016,07,31,05,28,9.60
2016,07,31,05,29,9.60
2016,07,31,05,30,11.30
2016,07,31,05,31,17.70
2016,07,31,05,32,12.90
2016,07,31,05,33,14.50
2016,07,31,05,34,14.50
2016,07,31,05,35,12.90
2016,07,31,05,36,12.90
2016,07,31,05,37,14.50
2016,07,31,05,38,12.90
2016,07,31,05,39,14.50
2016,07,31,05,40,8.10
2016,07,31,05,41,9.60
2016,07,31,05,42,9.60
2016,07,31,05,43,9.60
2016,07,31,05,44,11.30
2016,07,31,05,45,11.30
2016,07,31,05,46,12.90
2016,07,31,05,47,12.90
2016,07,31,05,48,14.50
2016,07,31,05,49,11.30
2016,07,31,05,50,6.40
2016,07,31,05,51,6.40
2016,07,31,05,52,9.60
2016,07,31,05,53,11.30
2016,07,31,05,54,16.10
2016,07,31,05,55,16.10
2016,07,31,05,56,14.50
2016,07,31,05,57,11.30
2016,07,31,05,58,9.60
2016,07,31,05,59,6.40
2016,07,31,06,00,9.60
2016,07,31,06,01,11.30
2016,07,31,06,02,11.30
2016,07,31,06,03,6.40
2016,07,31,06,04,9.60
2016,07,31,06,05,8.10
2016,07,31,06,06,11.30
2016,07,31,06,07,8.10
2016,07,31,06,08,12.90
2016,07,31,06,09,8.10
2016,07,31,06,10,9.60
2016,07,31,06,11,11.30
2016,07,31,06,12,9.60
2016,07,31,06,13,8.10
2016,07,31,06,14,8.10
2016,07,31,06,15,6.40
2016,07,31,06,16,9.60
2016,07,31,06,17,8.10
2016,07,31,06,18,9.60
2016,07,31,06,19,12.90
2016,07,31,06,20,11.30
2016,07,31,06,21,9.60
2016,07,31,06,22,8.10
2016,07,31,06,23,8.10
2016,07,31,06,24,9.60
2016,07,31,06,25,8.10
2016,07,31,06,26,8.10
2016,07,31,06,27,8.10
2016,07,31,06,28,6.40
2016,07,31,06,29,11.30
2016,07,31,06,30,11.30
2016,07,31,06,31,11.30
2016,07,31,06,32,8.10
2016,07,31,06,33,6.40
2016,07,31,06,34,9.60
2016,07,31,06,35,8.10
2016,07,31,06,36,8.10
2016,07,31,06,37,8.10
2016,07,31,06,38,9.60
2016,07,31,06,39,11.30
2016,07,31,06,40,9.60
2016,07,31,06,41,11.30
2016,07,31,06,42,6.40
2016,07,31,06,43,11.30
2016,07,31,06,44,9.60
2016,07,31,06,45,12.90
2016,07,31,06,46,11.30
2016,07,31,06,47,11.30
2016,07,31,06,48,16.10
2016,07,31,06,49,12.90
2016,07,31,06,50,9.60
2016,07,31,06,51,8.10
2016,07,31,06,52,9.60
2016,07,31,06,53,9.60
2016,07,31,06,54,12.90
2016,07,31,06,55,9.60
2016,07,31,06,56,17.70
2016,07,31,06,57,11.30
2016,07,31,06,58,6.40
2016,07,31,06,59,11.30
2016,07,31,07,00,11.30
2016,07,31,07,01,9.60
2016,07,31,07,02,11.30
2016,07,31,07,03,12.90
2016,07,31,07,04,9.60
2016,07,31,07,05,9.60
2016,07,31,07,06,6.40
2016,07,31,07,07,6.40
2016,07,31,07,08,11.30
2016,07,31,07,09,6.40
2016,07,31,07,10,6.40
2016,07,31,07,11,9.60
2016,07,31,07,12,8.10
2016,07,31,07,13,9.60
2016,07,31,07,14,8.10
2016,07,31,07,15,6.40
2016,07,31,07,16,6.40
2016,07,31,07,17,8.10
2016,07,31,07,18,11.30
2016,07,31,07,19,11.30
2016,07,31,07,20,11.30
2016,07,31,07,21,9.60
2016,07,31,07,22,4.80
2016,07,31,07,23,8.10
2016,07,31,07,24,4.80
2016,07,31,07,25,6.40
2016,07,31,07,26,9.60
2016,07,31,07,27,11.30
2016,07,31,07,28,6.40
2016,07,31,07,29,6.40
2016,07,31,07,30,8.10
2016,07,31,07,31,11.30
2016,07,31,07,32,8.10
2016,07,31,07,33,8.10
2016,07,31,07,34,8.10
2016,07,31,07,35,11.30
2016,07,31,07,36,6.40
2016,07,31,07,37,9.60
2016,07,31,07,38,8.10
2016,07,31,07,39,9.60
2016,07,31,07,40,12.90
2016,07,31,07,41,11.30
2016,07,31,07,42,11.30
2016,07,31,07,43,6.40
2016,07,31,07,44,8.10
2016,07,31,07,45,8.10
2016,07,31,07,46,6.40
2016,07,31,07,47,4.80
2016,07,31,07,48,8.10
2016,07,31,07,49,11.30
2016,07,31,07,50,9.60
2016,07,31,07,51,9.60
2016,07,31,07,52,8.10
2016,07,31,07,53,16.10
2016,07,31,07,54,19.30
2016,07,31,07,55,19.30
2016,07,31,07,56,22.50
2016,07,31,07,57,14.50
2016,07,31,07,58,17.70
2016,07,31,07,59,22.50
2016,07,31,08,00,19.30
2016,07,31,08,01,19.30
2016,07,31,08,02,16.10
2016,07,31,08,03,16.10
2016,07,31,08,04,17.70
2016,07,31,08,05,8.10
2016,07,31,08,06,12.90
2016,07,31,08,07,9.60
2016,07,31,08,08,12.90
2016,07,31,08,09,12.90
2016,07,31,08,10,12.90
2016,07,31,08,11,12.90
2016,07,31,08,12,16.10
2016,07,31,08,13,12.90
2016,07,31,08,14,12.90
2016,07,31,08,15,17.70
2016,07,31,08,16,9.60
2016,07,31,08,17,9.60
2016,07,31,08,18,9.60
2016,07,31,08,19,9.60
2016,07,31,08,20,11.30
2016,07,31,08,21,9.60
2016,07,31,08,22,6.40
2016,07,31,08,23,12.90
2016,07,31,08,24,11.30
2016,07,31,08,25,12.90
2016,07,31,08,26,12.90
2016,07,31,08,27,12.90
2016,07,31,08,28,12.90
2016,07,31,08,29,11.30
2016,07,31,08,30,11.30
2016,07,31,08,31,6.40
2016,07,31,08,32,4.80
2016,07,31,08,33,14.50
2016,07,31,08,34,14.50
2016,07,31,08,35,14.50
2016,07,31,08,36,16.10
2016,07,31,08,37,4.80
2016,07,31,08,38,3.20
2016,07,31,08,39,12.90
2016,07,31,08,40,14.50
2016,07,31,08,41,12.90
2016,07,31,08,42,4.80
2016,07,31,08,43,8.10
2016,07,31,08,44,11.30
2016,07,31,08,45,14.50
2016,07,31,08,46,14.50
2016,07,31,08,47,8.10
2016,07,31,08,48,6.40
2016,07,31,08,49,6.40
2016,07,31,08,50,9.60
2016,07,31,08,51,12.90
2016,07,31,08,52,6.40
2016,07,31,08,53,9.60
2016,07,31,08,54,14.50
2016,07,31,08,55,14.50
2016,07,31,08,56,8.10
2016,07,31,08,57,8.10
2016,07,31,08,58,8.10
2016,07,31,08,59,12.90
2016,07,31,09,00,9.60
2016,07,31,09,01,3.20
2016,07,31,09,02,9.60
2016,07,31,09,03,9.60
2016,07,31,09,04,8.10
2016,07,31,09,05,12.90
2016,07,31,09,06,12.90
2016,07,31,09,07,12.90
2016,07,31,09,08,14.50
2016,07,31,09,09,9.60
2016,07,31,09,10,11.30
2016,07,31,09,11,11.30
2016,07,31,09,12,8.10
2016,07,31,09,13,14.50
2016,07,31,09,14,12.90
2016,07,31,09,15,9.60
2016,07,31,09,16,14.50
2016,07,31,09,17,9.60
2016,07,31,09,18,12.90
2016,07,31,09,19,14.50
2016,07,31,09,20,8.10
2016,07,31,09,21,12.90
2016,07,31,09,22,9.60
2016,07,31,09,23,9.60
2016,07,31,09,24,4.80
2016,07,31,09,25,4.80
2016,07,31,09,26,14.50
2016,07,31,09,27,22.50
2016,07,31,09,28,9.60
2016,07,31,09,29,8.10
2016,07,31,09,30,14.50
2016,07,31,09,31,17.70
2016,07,31,09,32,16.10
2016,07,31,09,33,11.30
2016,07,31,09,34,6.40
2016,07,31,09,35,11.30
2016,07,31,09,36,12.90
2016,07,31,09,37,12.90
2016,07,31,09,38,11.30
2016,07,31,09,39,11.30
2016,07,31,09,40,11.30
2016,07,31,09,41,9.60
2016,07,31,09,42,14.50
2016,07,31,09,43,11.30
2016,07,31,09,44,8.10
2016,07,31,09,45,12.90
2016,07,31,09,46,11.30
2016,07,31,09,47,9.60
2016,07,31,09,48,14.50
2016,07,31,09,49,12.90
2016,07,31,09,50,16.10
2016,07,31,09,51,16.10
2016,07,31,09,52,14.50
2016,07,31,09,53,16.10
2016,07,31,09,54,14.50
2016,07,31,09,55,17.70
2016,07,31,09,56,16.10
2016,07,31,09,57,17.70
2016,07,31,09,58,17.70
2016,07,31,09,59,17.70
2016,07,31,10,00,16.10
2016,07,31,10,01,12.90
2016,07,31,10,02,8.10
2016,07,31,10,03,12.90
2016,07,31,10,04,17.70
2016,07,31,10,05,16.10
2016,07,31,10,06,4.80
2016,07,31,10,07,12.90
2016,07,31,10,08,19.30
2016,07,31,10,09,17.70
2016,07,31,10,10,14.50
2016,07,31,10,11,16.10
2016,07,31,10,12,14.50
2016,07,31,10,13,16.10
2016,07,31,10,14,12.90
2016,07,31,10,15,8.10
2016,07,31,10,16,17.70
2016,07,31,10,17,12.90
2016,07,31,10,18,16.10
2016,07,31,10,19,17.70
2016,07,31,10,20,25.70
2016,07,31,10,21,19.30
2016,07,31,10,22,20.90
2016,07,31,10,23,24.20
2016,07,31,10,24,17.70
2016,07,31,10,25,17.70
2016,07,31,10,26,20.90
2016,07,31,10,27,16.10
2016,07,31,10,28,19.30
2016,07,31,10,29,14.50
2016,07,31,10,30,20.90
2016,07,31,10,31,24.20
2016,07,31,10,32,22.50
2016,07,31,10,33,16.10
2016,07,31,10,34,14.50
2016,07,31,10,35,12.90
2016,07,31,10,36,8.10
2016,07,31,10,37,9.60
2016,07,31,10,38,11.30
2016,07,31,10,39,17.70
2016,07,31,10,40,19.30
2016,07,31,10,41,16.10
2016,07,31,10,42,22.50
2016,07,31,10,43,25.70
2016,07,31,10,44,22.50
2016,07,31,10,45,19.30
2016,07,31,10,46,19.30
2016,07,31,10,47,17.70
2016,07,31,10,48,27.40
2016,07,31,10,49,20.90
2016,07,31,10,50,19.30
2016,07,31,10,51,25.70
2016,07,31,10,52,25.70
2016,07,31,10,53,27.40
2016,07,31,10,54,20.90
2016,07,31,10,55,24.20
2016,07,31,10,56,19.30
2016,07,31,10,57,25.70
2016,07,31,10,58,24.20
2016,07,31,10,59,20.90
2016,07,31,11,00,14.50
2016,07,31,11,01,19.30
2016,07,31,11,02,25.70
2016,07,31,11,03,19.30
2016,07,31,11,04,22.50
2016,07,31,11,05,14.50
2016,07,31,11,06,14.50
2016,07,31,11,07,16.10
2016,07,31,11,08,19.30
2016,07,31,11,09,17.70
2016,07,31,11,10,20.90
2016,07,31,11,11,22.50
2016,07,31,11,12,22.50
2016,07,31,11,13,19.30
2016,07,31,11,14,19.30
2016,07,31,11,15,24.20
2016,07,31,11,16,24.20
2016,07,31,11,17,16.10
2016,07,31,11,18,22.50
2016,07,31,11,19,19.30
2016,07,31,11,20,22.50
2016,07,31,11,21,20.90
2016,07,31,11,22,20.90
2016,07,31,11,23,22.50
2016,07,31,11,24,27.40
2016,07,31,11,25,25.70
2016,07,31,11,26,17.70
2016,07,31,11,27,22.50
2016,07,31,11,28,22.50
2016,07,31,11,29,20.90
2016,07,31,11,30,25.70
2016,07,31,11,31,20.90
2016,07,31,11,32,27.40
2016,07,31,11,33,24.20
2016,07,31,11,34,22.50
2016,07,31,11,35,20.90
2016,07,31,11,36,29.00
2016,07,31,11,37,22.50
2016,07,31,11,38,24.20
2016,07,31,11,39,24.20
2016,07,31,11,40,16.10
2016,07,31,11,41,19.30
2016,07,31,11,42,17.70
2016,07,31,11,43,19.30
2016,07,31,11,44,17.70
2016,07,31,11,45,20.90
2016,07,31,11,46,20.90
2016,07,31,11,47,24.20
2016,07,31,11,48,20.90
2016,07,31,11,49,19.30
2016,07,31,11,50,19.30
2016,07,31,11,51,20.90
2016,07,31,11,52,20.90
2016,07,31,11,53,17.70
2016,07,31,11,54,17.70
2016,07,31,11,55,29.00
2016,07,31,11,56,29.00
2016,07,31,11,57,20.90
2016,07,31,11,58,20.90
2016,07,31,11,59,25.70
2016,07,31,12,00,14.50
2016,07,31,12,01,20.90
2016,07,31,12,02,25.70
2016,07,31,12,03,27.40
2016,07,31,12,04,27.40
2016,07,31,12,05,29.00
2016,07,31,12,06,27.40
2016,07,31,12,07,22.50
2016,07,31,12,08,22.50
2016,07,31,12,09,24.20
2016,07,31,12,10,27.40
2016,07,31,12,11,29.00
2016,07,31,12,12,29.00
2016,07,31,12,13,29.00
2016,07,31,12,14,32.20
2016,07,31,12,15,25.70
2016,07,31,12,16,24.20
2016,07,31,12,17,25.70
2016,07,31,12,18,24.20
2016,07,31,12,19,27.40
2016,07,31,12,20,30.60
2016,07,31,12,21,25.70
2016,07,31,12,22,24.20
2016,07,31,12,23,30.60
2016,07,31,12,24,30.60
2016,07,31,12,25,27.40
2016,07,31,12,26,29.00
2016,07,31,12,27,29.00
2016,07,31,12,28,17.70
2016,07,31,12,29,20.90
2016,07,31,12,30,30.60
2016,07,31,12,31,29.00
2016,07,31,12,32,27.40
2016,07,31,12,33,25.70
2016,07,31,12,34,16.10
2016,07,31,12,35,25.70
2016,07,31,12,36,29.00
2016,07,31,12,37,25.70
2016,07,31,12,38,29.00
2016,07,31,12,39,32.20
2016,07,31,12,40,24.20
2016,07,31,12,41,19.30
2016,07,31,12,42,24.20
2016,07,31,12,43,22.50
2016,07,31,12,44,20.90
2016,07,31,12,45,25.70
2016,07,31,12,46,27.40
2016,07,31,12,47,29.00
2016,07,31,12,48,22.50
2016,07,31,12,49,27.40
2016,07,31,12,50,32.20
2016,07,31,12,51,24.20
2016,07,31,12,52,19.30
2016,07,31,12,53,25.70
2016,07,31,12,54,24.20
2016,07,31,12,55,22.50
2016,07,31,12,56,20.90
2016,07,31,12,57,20.90
2016,07,31,12,58,22.50
2016,07,31,12,59,27.40
2016,07,31,13,00,25.70
2016,07,31,13,01,37.00
2016,07,31,13,02,32.20
2016,07,31,13,03,25.70
2016,07,31,13,04,27.40
2016,07,31,13,05,29.00
2016,07,31,13,06,25.70
2016,07,31,13,07,22.50
2016,07,31,13,08,22.50
2016,07,31,13,09,22.50
2016,07,31,13,10,19.30
2016,07,31,13,11,22.50
2016,07,31,13,12,17.70
2016,07,31,13,13,22.50
2016,07,31,13,14,25.70
2016,07,31,13,15,25.70
2016,07,31,13,16,20.90
2016,07,31,13,17,22.50
2016,07,31,13,18,24.20
2016,07,31,13,19,24.20
2016,07,31,13,20,19.30
2016,07,31,13,21,19.30
2016,07,31,13,22,20.90
2016,07,31,13,23,19.30
2016,07,31,13,24,19.30
2016,07,31,13,25,20.90
2016,07,31,13,26,25.70
2016,07,31,13,27,20.90
2016,07,31,13,28,16.10
2016,07,31,13,29,14.50
2016,07,31,13,30,25.70
2016,07,31,13,31,22.50
2016,07,31,13,32,29.00
2016,07,31,13,33,25.70
2016,07,31,13,34,22.50
2016,07,31,13,35,19.30
2016,07,31,13,36,24.20
2016,07,31,13,37,27.40
2016,07,31,13,38,22.50
2016,07,31,13,39,19.30
2016,07,31,13,40,22.50
2016,07,31,13,41,12.90
2016,07,31,13,42,20.90
2016,07,31,13,43,25.70
2016,07,31,13,44,25.70
2016,07,31,13,45,24.20
2016,07,31,13,46,17.70
2016,07,31,13,47,17.70
2016,07,31,13,48,12.90
2016,07,31,13,49,17.70
2016,07,31,13,50,16.10
2016,07,31,13,51,20.90
2016,07,31,13,52,17.70
2016,07,31,13,53,14.50
2016,07,31,13,54,19.30
2016,07,31,13,55,16.10
2016,07,31,13,56,14.50
2016,07,31,13,57,17.70
2016,07,31,13,58,19.30
2016,07,31,13,59,16.10
2016,07,31,14,00,12.90
2016,07,31,14,01,14.50
2016,07,31,14,02,12.90
2016,07,31,14,03,16.10
2016,07,31,14,04,16.10
2016,07,31,14,05,17.70
2016,07,31,14,06,16.10
2016,07,31,14,07,14.50
2016,07,31,14,08,16.10
2016,07,31,14,09,9.60
2016,07,31,14,10,16.10
2016,07,31,14,11,16.10
2016,07,31,14,12,17.70
2016,07,31,14,13,16.10
2016,07,31,14,14,12.90
2016,07,31,14,15,19.30
2016,07,31,14,16,17.70
2016,07,31,14,17,16.10
2016,07,31,14,18,16.10
2016,07,31,14,19,19.30
2016,07,31,14,20,17.70
2016,07,31,14,21,19.30
2016,07,31,14,22,19.30
2016,07,31,14,23,17.70
2016,07,31,14,24,22.50
2016,07,31,14,25,20.90
2016,07,31,14,26,19.30
2016,07,31,14,27,20.90
2016,07,31,14,28,16.10
2016,07,31,14,29,16.10
2016,07,31,14,30,16.10
2016,07,31,14,31,17.70
2016,07,31,14,32,19.30
2016,07,31,14,33,17.70
2016,07,31,14,34,19.30
2016,07,31,14,35,17.70
2016,07,31,14,36,16.10
2016,07,31,14,37,17.70
2016,07,31,14,38,17.70
2016,07,31,14,39,20.90
2016,07,31,14,40,14.50
2016,07,31,14,41,12.90
2016,07,31,14,42,17.70
2016,07,31,14,43,19.30
2016,07,31,14,44,19.30
2016,07,31,14,45,19.30
2016,07,31,14,46,20.90
2016,07,31,14,47,17.70
2016,07,31,14,48,22.50
2016,07,31,14,49,19.30
2016,07,31,14,50,19.30
2016,07,31,14,51,17.70
2016,07,31,14,52,20.90
2016,07,31,14,53,22.50
2016,07,31,14,54,20.90
2016,07,31,14,55,17.70
2016,07,31,14,56,17.70
2016,07,31,14,57,20.90
2016,07,31,14,58,19.30
2016,07,31,14,59,17.70
2016,07,31,15,00,17.70
2016,07,31,15,01,19.30
2016,07,31,15,02,20.90
2016,07,31,15,03,17.70
2016,07,31,15,04,17.70
2016,07,31,15,05,17.70
2016,07,31,15,06,16.10
2016,07,31,15,07,19.30
2016,07,31,15,08,17.70
2016,07,31,15,09,16.10
2016,07,31,15,10,14.50
2016,07,31,15,11,17.70
2016,07,31,15,12,16.10
2016,07,31,15,13,17.70
2016,07,31,15,14,17.70
2016,07,31,15,15,16.10
2016,07,31,15,16,17.70
2016,07,31,15,17,20.90
2016,07,31,15,18,20.90
2016,07,31,15,19,17.70
2016,07,31,15,20,20.90
2016,07,31,15,21,22.50
2016,07,31,15,22,22.50
2016,07,31,15,23,19.30
2016,07,31,15,24,19.30
2016,07,31,15,25,22.50
2016,07,31,15,26,19.30
2016,07,31,15,27,19.30
2016,07,31,15,28,17.70
2016,07,31,15,29,14.50
2016,07,31,15,30,19.30
2016,07,31,15,31,22.50
2016,07,31,15,32,20.90
2016,07,31,15,33,20.90
2016,07,31,15,34,22.50
2016,07,31,15,35,19.30
2016,07,31,15,36,19.30
2016,07,31,15,37,19.30
2016,07,31,15,38,17.70
2016,07,31,15,39,20.90
2016,07,31,15,40,22.50
2016,07,31,15,41,19.30
2016,07,31,15,42,22.50
2016,07,31,15,43,19.30
2016,07,31,15,44,20.90
2016,07,31,15,45,20.90
2016,07,31,15,46,20.90
2016,07,31,15,47,17.70
2016,07,31,15,48,16.10
2016,07,31,15,49,16.10
2016,07,31,15,50,12.90
2016,07,31,15,51,16.10
2016,07,31,15,52,17.70
2016,07,31,15,53,17.70
2016,07,31,15,54,17.70
2016,07,31,15,55,16.10
2016,07,31,15,56,17.70
2016,07,31,15,57,16.10
2016,07,31,15,58,19.30
2016,07,31,15,59,17.70
2016,07,31,16,00,19.30
2016,07,31,16,01,19.30
2016,07,31,16,02,17.70
2016,07,31,16,03,16.10
2016,07,31,16,04,17.70
2016,07,31,16,05,16.10
2016,07,31,16,06,17.70
2016,07,31,16,07,17.70
2016,07,31,16,08,14.50
2016,07,31,16,09,20.90
2016,07,31,16,10,16.10
2016,07,31,16,11,19.30
2016,07,31,16,12,16.10
2016,07,31,16,13,17.70
2016,07,31,16,14,16.10
2016,07,31,16,15,16.10
2016,07,31,16,16,14.50
2016,07,31,16,17,12.90
2016,07,31,16,18,12.90
2016,07,31,16,19,16.10
2016,07,31,16,20,14.50
2016,07,31,16,21,14.50
2016,07,31,16,22,17.70
2016,07,31,16,23,14.50
2016,07,31,16,24,12.90
2016,07,31,16,25,14.50
2016,07,31,16,26,17.70
2016,07,31,16,27,16.10
2016,07,31,16,28,17.70
2016,07,31,16,29,16.10
2016,07,31,16,30,17.70
2016,07,31,16,31,14.50
2016,07,31,16,32,14.50
2016,07,31,16,33,16.10
2016,07,31,16,34,12.90
2016,07,31,16,35,11.30
2016,07,31,16,36,11.30
2016,07,31,16,37,11.30
2016,07,31,16,38,14.50
2016,07,31,16,39,16.10
2016,07,31,16,40,12.90
2016,07,31,16,41,14.50
2016,07,31,16,42,14.50
2016,07,31,16,43,16.10
2016,07,31,16,44,17.70
2016,07,31,16,45,14.50
2016,07,31,16,46,16.10
2016,07,31,16,47,16.10
2016,07,31,16,48,16.10
2016,07,31,16,49,16.10
2016,07,31,16,50,12.90
2016,07,31,16,51,16.10
2016,07,31,16,52,12.90
2016,07,31,16,53,14.50
2016,07,31,16,54,11.30
2016,07,31,16,55,16.10
2016,07,31,16,56,12.90
2016,07,31,16,57,14.50
2016,07,31,16,58,14.50
2016,07,31,16,59,12.90
2016,07,31,17,00,9.60
2016,07,31,17,01,14.50
2016,07,31,17,02,14.50
2016,07,31,17,03,16.10
2016,07,31,17,04,14.50
2016,07,31,17,05,14.50
2016,07,31,17,06,14.50
2016,07,31,17,07,8.10
2016,07,31,17,08,9.60
2016,07,31,17,09,9.60
2016,07,31,17,10,9.60
2016,07,31,17,11,8.10
2016,07,31,17,12,4.80
2016,07,31,17,13,6.40
2016,07,31,17,14,6.40
2016,07,31,17,15,8.10
2016,07,31,17,16,8.10
2016,07,31,17,17,11.30
2016,07,31,17,18,6.40
2016,07,31,17,19,8.10
2016,07,31,17,20,3.20
2016,07,31,17,21,8.10
2016,07,31,17,22,9.60
2016,07,31,17,23,6.40
2016,07,31,17,24,6.40
2016,07,31,17,25,3.20
2016,07,31,17,26,3.20
2016,07,31,17,27,6.40
2016,07,31,17,28,8.10
2016,07,31,17,29,9.60
2016,07,31,17,30,12.90